Date String (YYYY-MM-DD hh:mm:ss) UTC,Instrument flags,absolute air pressure of the measurement (hPa),sample flow rate (lpm),inlet stack bypass flow (lpm),air temperature of the measurement (°C),ambient temperature measured by the external sensor (°C),aerosol sample conditioner tube jacket temperature (°C),OPC LED temperature (°C),internal box temperature (°C),relative humidity of the measurement (%),span deviation,mass concentration of particles derived from Lorenz-Mie calculation of OPC scattering (μg/m³),mass concentration of particles derived from Lorenz-Mie calculation of OPC scattering (μg/m³),mass concentration of particles derived from Lorenz-Mie calculation of OPC scattering (μg/m³)
DateTimeUTC,F1_M11,P_M11,Q1_M11,Q2_M11,T1_M11,T2_M11,T3_M11,T4_M11,T5_M11,U1_M11,ZSPAN_M11,X0_M11,X2_M11,X1_M11
2023-12-19 02:00:00,SystemResetWarning,0827.2,5.00,000.00,023.1,022.2,000.0,031.5,024.5,7.8,0000.0,0014.52,0005.25,0004.02
2023-12-19 02:01:00,SystemResetWarning,0827.2,5.00,000.00,023.1,022.2,000.0,031.5,024.5,7.6,0000.0,0013.38,0005.09,0003.89
2023-12-19 02:02:00,SystemResetWarning,0827.2,5.00,000.00,023.1,022.2,000.0,031.5,024.4,8.5,0000.0,0013.47,0005.06,0003.83
2023-12-19 02:03:00,SystemResetWarning,0827.1,5.00,000.00,023.1,022.2,000.0,031.5,024.3,9.4,0000.0,0013.12,0004.88,0003.72
2023-12-19 02:04:00,SystemResetWarning,0827.2,5.00,000.00,023.1,022.2,000.0,031.4,024.3,10.0,0000.0,0012.08,0004.74,0003.60
2023-12-19 02:05:00,SystemResetWarning,0827.1,5.00,000.00,023.0,022.2,000.0,031.4,024.2,8.6,0000.0,0011.42,0004.48,0003.44
2023-12-19 02:06:00,SystemResetWarning,0827.0,5.00,000.00,023.0,022.2,000.0,031.4,024.2,6.7,0000.0,0011.71,0004.25,0003.27
2023-12-19 02:07:00,SystemResetWarning,0827.1,5.00,000.00,023.0,022.2,000.0,031.4,024.2,6.2,0000.0,0011.32,0004.07,0003.14
2023-12-19 02:08:00,SystemResetWarning,0827.0,5.00,000.00,023.0,022.2,000.0,031.4,024.2,6.9,0000.0,0010.98,0003.89,0002.98
2023-12-19 02:09:00,SystemResetWarning,0827.0,5.00,000.00,023.0,022.2,000.0,031.4,024.3,7.2,0000.0,0010.56,0003.70,0002.72
2023-12-19 02:10:00,SystemResetWarning,0827.0,5.00,000.00,023.0,022.2,000.0,031.4,024.3,7.2,0000.0,0010.28,0003.52,0002.52
2023-12-19 02:11:00,SystemResetWarning,0827.0,5.00,000.00,023.0,022.2,000.0,031.4,024.3,6.5,0000.0,0009.88,0003.33,0002.33
2023-12-19 02:12:00,SystemResetWarning,0827.0,5.00,000.00,023.0,022.2,000.0,031.4,024.3,5.5,0000.0,0009.50,0003.07,0002.05
2023-12-19 02:13:00,SystemResetWarning,0826.9,4.99,000.00,022.9,022.2,000.0,031.4,024.2,5.5,0000.0,0008.87,0002.62,0001.79
2023-12-19 02:14:00,SystemResetWarning,0826.9,5.00,000.00,022.9,022.2,000.0,031.3,024.3,5.4,0000.0,0008.49,0002.41,0001.65
2023-12-19 02:15:00,SystemResetWarning,0826.8,5.00,000.00,023.0,022.2,000.0,031.3,024.3,5.9,0000.0,0008.17,0002.21,0001.55
2023-12-19 02:16:00,SystemResetWarning,0826.8,5.00,000.00,023.0,022.2,000.0,031.3,024.3,9.3,0000.0,0007.55,0002.10,0001.47
2023-12-19 02:17:00,SystemResetWarning,0826.8,5.00,000.00,023.0,022.2,000.0,031.3,024.3,10.2,0000.0,0005.87,0001.93,0001.36
2023-12-19 02:18:00,SystemResetWarning,0826.9,5.00,000.00,023.0,022.2,000.0,031.3,024.4,10.3,0000.0,0005.46,0001.70,0001.20
2023-12-19 02:19:00,SystemResetWarning,0826.9,5.01,000.00,023.0,022.2,000.0,031.3,024.4,10.6,0000.0,0005.13,0001.46,0001.01
2023-12-19 02:20:00,SystemResetWarning,0827.0,5.00,000.00,023.0,022.2,000.0,031.3,024.4,9.4,0000.0,0004.93,0001.24,0000.88
2023-12-19 02:21:00,SystemResetWarning,0826.9,5.00,000.00,023.0,022.2,000.0,031.3,024.4,9.7,0000.0,0006.27,0001.55,0001.08
2023-12-19 02:22:00,SystemResetWarning,0827.0,4.98,000.00,023.0,022.2,000.0,031.3,024.4,9.6,0000.0,0008.09,0002.09,0001.43
2023-12-19 02:23:00,SystemResetWarning,0827.1,5.00,000.00,023.0,022.3,000.0,031.3,024.4,10.4,0000.0,0008.77,0002.73,0001.86
2023-12-19 02:24:00,SystemResetWarning,0827.0,5.02,000.00,023.0,022.3,000.0,031.3,024.3,11.1,0000.0,0009.28,0003.15,0002.21
2023-12-19 02:25:00,SystemResetWarning,0826.9,5.00,000.00,023.0,022.3,000.0,031.3,024.2,11.1,0000.0,0009.63,0003.35,0002.46
2023-12-19 02:26:00,SystemResetWarning,0826.9,4.99,000.00,023.0,022.2,000.0,031.3,024.2,10.7,0000.0,0009.99,0003.48,0002.65
2023-12-19 02:27:00,SystemResetWarning,0827.0,4.99,000.00,023.0,022.2,000.0,031.3,024.2,10.6,0000.0,0010.39,0003.67,0002.88
2023-12-19 02:28:00,SystemResetWarning,0826.9,5.01,000.00,023.0,022.2,000.0,031.3,024.3,11.2,0000.0,0010.96,0003.97,0003.17
2023-12-19 02:29:00,SystemResetWarning,0826.8,5.00,000.00,023.0,022.2,000.0,031.3,024.3,11.6,0000.0,0012.11,0004.36,0003.46
2023-12-19 02:30:00,SystemResetWarning,0826.8,4.99,000.00,023.0,022.2,000.0,031.3,024.3,11.6,0000.0,0012.71,0004.77,0003.77
2023-12-19 02:31:00,SystemResetWarning,0827.0,4.99,000.00,023.0,022.2,000.0,031.3,024.3,11.4,0000.0,0013.04,0005.08,0004.02
2023-12-19 02:32:00,SystemResetWarning,0826.9,5.00,000.00,023.0,022.2,000.0,031.3,024.3,11.2,0000.0,0012.17,0005.09,0004.06
2023-12-19 02:33:00,SystemResetWarning,0827.0,5.01,000.00,023.0,022.2,000.0,031.3,024.3,11.6,0000.0,0011.69,0005.12,0004.12
2023-12-19 02:34:00,SystemResetWarning,0827.0,5.00,000.00,023.0,022.2,000.0,031.3,024.3,11.6,0000.0,0011.64,0005.13,0004.20
2023-12-19 02:35:00,SystemResetWarning,0826.9,4.99,000.00,023.0,022.2,000.0,031.3,024.3,11.5,0000.0,0012.58,0005.17,0004.26
2023-12-19 02:36:00,SystemResetWarning,0826.9,5.02,000.00,023.0,022.2,000.0,031.3,024.3,11.5,0000.0,0012.90,0005.18,0004.29
2023-12-19 02:37:00,SystemResetWarning,0826.9,5.01,000.00,023.0,022.2,000.0,031.3,024.3,11.0,0000.0,0013.13,0005.26,0004.35
2023-12-19 02:38:00,SystemResetWarning,0826.8,4.99,000.00,023.0,022.2,000.0,031.3,024.3,10.6,0000.0,0013.55,0005.32,0004.42
2023-12-19 02:39:00,SystemResetWarning,0826.7,5.01,000.00,023.0,022.2,000.0,031.3,024.3,10.5,0000.0,0014.37,0005.38,0004.49
2023-12-19 02:40:00,SystemResetWarning,0826.8,5.01,000.00,023.0,022.2,000.0,031.3,024.3,11.3,0000.0,0015.64,0005.28,0004.41
2023-12-19 02:41:00,SystemResetWarning,0826.8,5.00,000.00,023.0,022.2,000.0,031.3,024.3,11.8,0000.0,0015.68,0005.12,0004.26
2023-12-19 02:42:00,SystemResetWarning,0826.8,4.99,000.00,023.0,022.2,000.0,031.3,024.3,12.0,0000.0,0015.98,0005.07,0004.18
2023-12-19 02:43:00,SystemResetWarning,0826.8,4.99,000.00,023.0,022.2,000.0,031.3,024.3,12.1,0000.0,0015.81,0005.03,0004.15
2023-12-19 02:44:00,SystemResetWarning,0826.8,5.02,000.00,023.0,022.2,000.0,031.3,024.4,12.1,0000.0,0015.43,0004.99,0004.09
2023-12-19 02:45:00,SystemResetWarning,0826.9,5.00,000.00,023.0,022.2,000.0,031.3,024.4,12.1,0000.0,0015.88,0004.88,0003.95
2023-12-19 02:46:00,SystemResetWarning,0826.8,4.99,000.00,023.0,022.2,000.0,031.3,024.4,11.8,0000.0,0015.64,0004.75,0003.82
2023-12-19 02:47:00,SystemResetWarning,0826.7,4.99,000.00,023.0,022.2,000.0,031.3,024.3,11.1,0000.0,0016.07,0004.70,0003.72
2023-12-19 02:48:00,SystemResetWarning,0826.7,5.02,000.00,023.0,022.2,000.0,031.3,024.3,10.8,0000.0,0016.92,0004.60,0003.64
2023-12-19 02:49:00,SystemResetWarning,0826.8,5.01,000.00,023.0,022.2,000.0,031.3,024.3,9.9,0000.0,0016.55,0004.51,0003.55
2023-12-19 02:50:00,SystemResetWarning,0826.8,4.99,000.00,023.0,022.2,000.0,031.3,024.4,10.4,0000.0,0015.74,0004.38,0003.44
2023-12-19 02:51:00,SystemResetWarning,0826.8,4.99,000.00,023.0,022.2,000.0,031.3,024.4,10.6,0000.0,0014.49,0004.36,0003.39
2023-12-19 02:52:00,SystemResetWarning,0826.8,5.01,000.00,023.0,022.2,000.0,031.3,024.4,10.4,0000.0,0014.67,0004.38,0003.40
2023-12-19 02:53:00,SystemResetWarning,0826.8,5.01,000.00,023.0,022.2,000.0,031.3,024.4,10.0,0000.0,0014.94,0004.36,0003.39
2023-12-19 02:54:00,SystemResetWarning,0826.8,5.01,000.00,023.0,022.2,000.0,031.3,024.4,9.7,0000.0,0014.93,0004.33,0003.36
2023-12-19 02:55:00,SystemResetWarning,0826.7,4.99,000.00,023.0,022.2,000.0,031.3,024.4,9.6,0000.0,0014.39,0004.27,0003.31
2023-12-19 02:56:00,SystemResetWarning,0826.7,4.99,000.00,023.0,022.2,000.0,031.3,024.4,9.6,0000.0,0014.03,0004.23,0003.27
2023-12-19 02:57:00,SystemResetWarning,0826.7,5.00,000.00,023.0,022.2,000.0,031.3,024.4,9.6,0000.0,0013.41,0004.24,0003.27
2023-12-19 02:58:00,SystemResetWarning,0826.8,5.00,000.00,023.0,022.2,000.0,031.3,024.4,9.8,0000.0,0013.24,0004.25,0003.33
2023-12-19 02:59:00,SystemResetWarning,0826.8,5.01,000.00,023.0,022.2,000.0,031.3,024.4,10.2,0000.0,0012.20,0004.27,0003.37
